Regional Weather Roundup
Issued by NWS Green Bay, WI

Home | Current Version | Previous Version | Graphics & Text | Print | Product List | Glossary Off
Versions: 1 2 3 4 5 6 7 8 9 10 11 12 13 14 15 16 17 18 19 20 21 22 23 24 25 26 27 28 29 30 31 32 33 34 35 36 37 38 39 40 41 42 43 44 45 46 47 48 49 50

000
ASUS43 KGRB 251511
RWRGRB

NORTH-CENTRAL AND NORTHEAST WISCONSIN REGIONAL WEATHER ROUNDUP
NATIONAL WEATHER SERVICE GREEN BAY WI
1000 AM CDT FRI MAY 25 2018

WIZ005-009-010>012-018-019-251600-
NORTH CENTRAL WISCONSIN

CITY           SKY/WX    TMP DP  RH WIND       PRES   REMARKS
IRONWOOD       PTSUNNY   70  60  70 S6        29.76F
MANITOWISH WTR NOT AVBL
ARBOR VITAE    FAIR      71  65  83 CALM      29.83S
EAGLE RIVER    LGT RAIN  67  63  88 CALM      29.83F
LAND O LAKES   LGT RAIN  66  64  91 CALM      29.84S
RHINELANDER    CLOUDY    71  64  78 W7        29.84F
PHILLIPS       FAIR      68  64  86 SW6       29.82F
ANTIGO         FAIR      75  62  63 W12       29.85F
TOMAHAWK       FAIR      66  61  85 CALM      29.85S
MERRILL        CLOUDY    72  59  64 SW12G22   29.84F
$$

WIZ013-073-251600-
NORTHEAST WISCONSIN

CITY           SKY/WX    TMP DP  RH WIND       PRES   REMARKS
IRON MOUNTAIN  CLOUDY    76  64  66 W8        29.80F
MARINETTE      FAIR      81  66  60 W7G17     29.82F
$$

WIZ017-030-035>037-045-251600-
CENTRAL WISCONSIN

CITY           SKY/WX    TMP DP  RH WIND       PRES   REMARKS
MEDFORD        LGT RAIN  64  58  80 SW16G26   29.82F
WAUSAU         FAIR      77  59  53 W18G30    29.84F
MOSINEE        PTSUNNY   75  63  64 SW18G26   29.89S
MARSHFIELD     PTSUNNY   73  57  57 W16G22    29.89R
WISC RAPIDS    FAIR      78  59  51 W16G25    29.91R
STEVENS POINT  FAIR      75  60  59 W16G22    29.89R
WAUPACA        FAIR      80  62  54 SW12      29.88S
SHAWANO        FAIR      81  66  59 SW10      29.84F
CLINTONVILLE   FAIR      81  62  53 W10       29.85S
WAUTOMA        FAIR      78  63  59 W12       29.89S
$$

WIZ038-039-048-051-251600-
FOX VALLEY

CITY           SKY/WX    TMP DP  RH WIND       PRES   REMARKS
NWS GREEN BAY  FAIR      81  65  58 W14       29.85F
APPLETON       PTSUNNY   79  61  53 W16       29.86S
OSHKOSH        FAIR      81  66  60 W8        29.87F
FOND DU LAC    FAIR      80  64  58 W12       29.89S
$$

WIZ022-050-052-251600-
EAST CENTRAL WISCONSIN

CITY           SKY/WX    TMP DP  RH WIND       PRES   REMARKS
EPHRAIM        PTSUNNY   75  62  65 SW9G17    29.83S
WASHINGTON ISL FAIR      70  61  73 SW12G18   29.83S
STURGEON BAY   FAIR      80  65  59 SW14      29.84F
MANITOWOC      FAIR      82  65  56 W14       29.86F
SHEBOYGAN      FAIR      82  62  50 W15       29.88S
$$

LMZ563-521-522-541>543-251600-
LAKESHORE

STATION/POSITION TIME  TEMP    WIND        PRES    VSBY  WAVE
                       AIR SEA DIR/SP/G                  HT/PER
                 (UTC) (F)     (DEG/KT/KT) (MB)    (MI)  (FT/S)
SHEBOYGAN LKSHOR 1500   73     210/ 11/ 15 1011.1F
KEWAUNEE LKSHORE 1448          270/ 10/ 15 1010.1F
NORTHPORT PIER   1440          100/  2/  3 1010.2S
N MID LAKE BUOY  1450   42 38  180/  6/ 10 1010.7R         1/ 4
SISTER BAY LKSHO 1457   75     280/ 10/ 10   N/A
MENOMINEE LKSHOR 1448   75     210/  7/ 16 1009.6F
$$




USA.gov is the U.S. government's official web portal to all federal, state and local government web resources and services.